Погода в Серове

Поиск расширенной информации на нашем сайте:

Полезная информация:

Новости сайта



02.01.2020
Опубликован Долгосрочный прогноз погоды по городам России и ближнего зарубежья на январь 2020 года.
Карты: Прогноз на январь и февраль 2020 года, Сравнение прогнозируемой аномалии приземной температуры воздуха на январь 2020 года по разным моделям.




Погода в Серове - сегодня

Время (UTC), дата Ветер
(°,м/с) 
Видим.   Явления Облачность Т
(°С)
Тd
(°С)
f(%) Тe
(°С)
Pmin
(гПа)
dP
(гПа)
Po
(мм)
O2
(г/м3)
Тmin Tmax R s Состояние
почвы
00 16.01.22 тихо ()   2000 м  слаб. снег  10/0 средняя 
[As trans]
-17.6 -20.6 77 -18  985.2  0.5  727  315           
03 16.01.22 330 (СЗ) 10 км  {снег}  8/0 средняя 
[Ac trans]
-19.6 -22.5 78 -20  986.8  1.4  728  318  -20    49  равномерный
сухой снег
100% 
06 16.01.22 340 (С) 10 км  слаб. снег  10/0 средняя 
[As op]
-17.5 -20.4 78 -18  988.2  1.4  729  315           
09 16.01.22 360 (С) 10 км  слаб. снег  10/0 средняя 
[As op]
-16.3 -19.5 76 -16  988.7  0.6  729  314           
12 16.01.22 320 (СЗ) 10 км  {снег}  4/0 средняя 
[Ac trans]
-18.5 -21.4 78 -19  989.8  730  317           
15 16.01.22 270 (З) 10 км    4/0 средняя 
[Ac trans]
-21.7 -24.9 75 -22  990.3  0.2  730  321    -15.9  0.9     
18 16.01.22 280 (З) 10 км    8/0 средняя 
[Ac As]
-22.6 -26.1 73 -26  989.5  -0.8  730  322           
21 16.01.22 260 (З) 10 км    5/0 средняя 
[Ac As]
-22.9 -26.2 74 -26  989.7  -0.1  730  323           
00 17.01.22 300 (СЗ) 10 км    9/0 средняя 
[Ac As]
-22 -25.2 75 -27  990.3  0.7  730  322           
03 17.01.22 270 (З) 10 км    9/0 средняя 
[Ac trans]
-21.1 -24.4 75 -21  991.7  1.4  731  321  -24.8      49  равномерный
сухой снег
100% 
06 17.01.22 270 (З) 20000 м    6/0 средняя 
[Ac trans]
-19.9 -23.1 76 -23  993.9  2.3  733  320           
09 17.01.22 260 (З) 20000 м    8/0 средняя, верхняя 
[Ac lent|Ci sp]
-15.1 -18.7 74 -19  995.2  1.6  734  315           
12 17.01.22 260 (З) 10 км    ясно 
-14.9 -17.8 79 -17  996.9  1.6  735  315           
15 17.01.22 080 (В) 10 км    8/0 средняя 
[Ac trans]
-15.7 -18.4 80 -16  997.2  0.2  736  316    -13.6       
18 17.01.22 080 (В) 2000 м  слаб. снег  10/0 средняя 
[As op]
-12.5 -15.2 80 -12  996.6  -0.4  735  312           
21 17.01.22 060 (СВ) 10 км  {снег}  10/0 средняя 
[Ac und]
-11.4 -13.8 82 -11  997.8  1.3  736  311           
00 18.01.22 150 (ЮВ) 2000 м  слаб. снег  10/0 средняя 
[As op]
-9.5 -11.8 83 -9  998.9  1.1  737  309           
03 18.01.22 210 (ЮЗ) 10 км  {снег}  10/6 600 м средняя 
[Sc|Ac trans]
-6.7 -10.5 74 -9  999.8  1.1  738  306  -15.7    0.0  49  равномерный
сухой снег
100% 
06 18.01.22 230 (ЮЗ) 20000 м  {снег}  9/9 600 м 
[Sc]
-6.2 -10.5 72 -8  1001.8  740  306           
09 18.01.22 210 (ЮЗ) 20000 м    9/9 600 м 
[Sc]
-5.4 -10.3 68 -9  1003  1.2  740  305           
12 18.01.22 190 (Ю) 10 км    9/9 600 м 
[Sc]
-6 -10.2 72 -9  1004.2  1.1  741  306           
15 18.01.22 210 (ЮЗ) 10 км    8/8 600 м 
[Sc]
-6 -10.2 72 -9  1005.2  1.1  742  307    -5.2       
18 18.01.22 210 (ЮЗ) 10 км    9/9 600 м 
[Sc]
-5 -9.5 71 -6  1006  0.8  743  306           
21 18.01.22 220 (ЮЗ) 10 км    9/9 600 м 
[Sc]
-5.3 -9.3 73 -7  1007  743  306           
00 19.01.22 210 (ЮЗ) 10 км    10/10 600 м 
[Sc]
-5 -8.7 75 -6  1007.6  0.6  744  306           
Время (UTC), дата Ветер
(°,м/с) 
Видим.   Явления Облачность Т
(°С)
Тd
(°С)
f(%) Тe
(°С)
Pmin
(гПа)
dP
(гПа)
Po
(мм)
O2
(г/м3)
Тmin Tmax R s Состояние
почвы

Для получения пояснительной информации подведите курсор к названию столбца.

ПОГОДА в Серове - архив

Всё, что Вы хотите узнать о погоде в Серове - удобно и подробно!

Выберите нужную дату (начиная с 1 января 2019* года) и нажмите кнопку "Найти".
Будут отображены архивные сводки погоды по пункту Серов, начиная с указанной даты.


Отображать данные в формате CSV (для использования в таблицах Excel)


Внимание! Наш архив погоды предназначен исключительно для личного некоммерческого использования в познавательных целях. Если Вам необходимы официальные справки о состоянии погоды (для производственных, юридических, коммерческих и т.п. целей), обращайтесь в органы Росгидромета.

*Примечание: данная дата относится к архиву по метеостанциям СССР (Россия, СНГ, Балтия).
Архив по метеостанциям Зарубежной Европы и Азии (кроме Китая) хранится 10 дней, по другим регионам земного шара (Китай, Африка, Америка, Австралия, Океания) - 1 день.

Серов - район местоположения метеостанции


Название, широта, долгота, высота метеостанции:
Серов 59.6°ш. 60.5°д. 130 м над ур. моря [Российская Федерация]

Дополнительная информация

В oтличие oт бoльшинства пoгoдных сайтoв мы публикуем пoдрoбную метеoинфoрмацию в детальнoм прoфессиoнальнoм фoрмате.

Характеристики температуры и влажнoсти вoздуха измеряются на высoте 2 м в тени вдали oт зданий и деревьев.
Скoрoсть ветра измеряется на высoте 10 м (на урoвне рoста челoвека скoрoсть ветра ниже в 1.5-2 раза). Если метеoстанция нахoдится в гoрoде или в лесу, тo скoрoсть ветра занижена на 2-4 м/с пo сравнению с oткрытым местoм. Скoрoсть ветра над акватoриями крупных рек и oзёр, а также на вершинах хoлмoв на 2-5 м/с выше, чем в oбычных услoвиях.
Атмoсфернoе давление в разных тoчках местнoсти мoжет значительнo oтличаться oт давления на метеoстанции, в зависимoсти oт услoвий рельефа (при пoдъёме на 10 м давление пoнижается примернo на 1 мм рт.ст.).